Regional Weather Roundup
Issued by NWS Little Rock, AR

Home | Current Version | Previous Version | Text Only | Print | Product List | Glossary Off
Versions: 1 2 3 4 5 6 7 8 9 10 11 12 13 14 15 16 17 18 19 20 21 22 23 24 25 26 27 28 29 30 31 32 33 34 35 36 37 38 39 40 41 42 43 44 45 46 47 48 49 50

198
ASUS44 KLZK 182005
RWRLZK

WEATHER ROUNDUP FOR ARKANSAS
NATIONAL WEATHER SERVICE LITTLE ROCK AR
200 PM CST THU JAN 18 2018

NOTE: "FAIR" INDICATES FEW OR NO CLOUDS BELOW 12,000 FEET WITH NO
SIGNIFICANT WEATHER AND/OR OBSTRUCTIONS TO VISIBILITY.

ARZ001-003-010-029-182100-
NORTHWEST ARKANSAS

CITY           SKY/WX    TMP DP  RH WIND       PRES   REMARKS
FAYETTEVILLE   SUNNY     41   9  26 S13       30.31F
FORT SMITH     SUNNY     42   8  24 S8        30.37F
HARRISON       SUNNY     46   6  19 SW9       30.28F
BENTONVILLE    SUNNY     42  10  27 SW13      30.30F
ROGERS         SUNNY     42  10  27 SW13      30.29F
SILOAM SPGS    SUNNY     42   9  25 SW14      30.30F
HIGHFILL       SUNNY     42   9  25 SW14      30.29F
SPRINGDALE     SUNNY     43   7  22 SW15G22   30.30F
$$

ARZ004-005-016-182100-
NORTH CENTRAL ARKANSAS

CITY           SKY/WX    TMP DP  RH WIND       PRES   REMARKS
BATESVILLE     SUNNY     42   9  25 SW9       30.38F
FLIPPIN        SUNNY     44  13  28 SE5       30.32
MTN HOME       SUNNY     40  16  37 S5        30.31F
$$

ARZ040-041-182100-
WEST CENTRAL ARKANSAS

CITY           SKY/WX    TMP DP  RH WIND       PRES   REMARKS
MENA           SUNNY     43   5  21 W6        30.37F
MOUNT IDA      SUNNY     44   9  23 VRB5      30.36F
$$

ARZ009-017-025-026-028-182100-
NORTHEAST ARKANSAS

CITY           SKY/WX    TMP DP  RH WIND       PRES   REMARKS
JONESBORO      FAIR      33  20  58 SW13      30.42F WCI  24
NEWPORT        FAIR      36  20  52 S14       30.41F
WALNUT RIDGE   FAIR      35  18  49 S15       30.39F WCI  25
BLYTHEVILLE    FAIR      29  19  66 SW14      30.44F WCI  18
$$

ARZ022-023-033-042-044-182100-
CENTRAL ARKANSAS

CITY           SKY/WX    TMP DP  RH WIND       PRES   REMARKS
LITTLE ROCK    SUNNY     40  12  32 W10       30.43F
JACKSONVILLE   SUNNY     40  16  36 S5        30.41F
SEARCY         FAIR      39  15  37 VRB7      30.42F
HOT SPRINGS    SUNNY     41  10  28 VRB6      30.42F
RUSSELLVILLE   SUNNY     41   8  25 VRB5      30.39F
CLINTON        FAIR      41   7  24 SW9       30.38F
$$

ARZ036-182100-
EAST ARKANSAS

CITY           SKY/WX    TMP DP  RH WIND       PRES   REMARKS
WEST MEMPHIS   FAIR      32  18  56 S9        30.45F WCI  24
$$

ARZ050-053-066-070-073-182100-
SOUTHWEST ARKANSAS

CITY           SKY/WX    TMP DP  RH WIND       PRES   REMARKS
ARKADELPHIA    FAIR      39  16  39 S8        30.45F
CAMDEN         MIX PCPN  41  12  30 VRB5      30.47F
TEXARKANA      SUNNY     39  10  30 CALM      30.43F
EL DORADO      FAIR      40  18  41 S3        30.46F
DE QUEEN       SUNNY     41   9  26 CALM      30.41F
$$

ARZ056-057-069-182100-
SOUTHEAST ARKANSAS

CITY           SKY/WX    TMP DP  RH WIND       PRES   REMARKS
PINE BLUFF     FAIR      36  18  48 S8        30.46F
STUTTGART      FAIR      33  18  53 SW8       30.46F WCI  26
MONTICELLO     FAIR      39  12  33 SW7       30.46F

$$






USA.gov is the U.S. government's official web portal to all federal, state and local government web resources and services.